Tracking 28790 objects as of 19-Apr-2024
HD Live streaming from Space Station
objects crossing your sky now

PALAPA 2

Track PALAPA 2 now!
PALAPA 2 is classified as:


NORAD ID: 9862
Int'l Code: 1977-018A
Perigee: 35,833.4 km
Apogee: 35,883.3 km
Inclination: 10.2 °
Period: 1,439.4 minutes
Semi major axis: 42229 km
RCS: 5.6864 m2 (large)
Launch date: March 10, 1977
Source: Indonesia (INDO)
Launch site: AIR FORCE EASTERN TEST RANGE (AFETR)
Your satellite tracking list
Your tracking list is empty




NASA's NSSDC Master Catalog

Two Line Element Set (TLE):
1 09862U 77018A   24109.45110831 -.00000304  00000-0  00000-0 0  9995
2 09862  10.2163 315.9846 0005917 117.5813 237.9320  1.00041773135204
Source of the keplerian elements: AFSPC